Погода в Березовском

Россия / Челябинская область     54°06′59″N   62°49′13″E
темп.,
°C
ветер,
м/с
пор.,
м/с
влажн.,
%
обл.,
%
осадки,
мм/ч
давл.,
гПа
погр.,
м
20 января, ср
ср2023:00−13в51090100 0.4 1017407
02:00−13в51089100 0.4 1015454
05:00−13в4895100 1.4 1014466
08:00−13всв2496100 1.7 1011171
11:00−13с2396100 2.4 1011126
14:00−13з4694100 0.4 1011445
17:00−14з51092100 0.8 1013392
20:00−18зюз469255 0.0 101487
21 января, чт
чт2123:00−20юз459347 0.0 101680
02:00−21зюз34934 0.0 101754
05:00−23зюз34924 0.0 101741
08:00−24зюз34920 0.0 101741
11:00−24з35910 0.0 101794
14:00−21зюз349340 0.0 101793
17:00−21зюз349351 0.0 101632
20:00−21зюз339257 0.0 101624
22 января, пт
пт2223:00−20зюз239073 0.0 101631
02:00−19з1296100 0.0 101620
05:00−19зсз2297100 0.1 101620
08:00−22зсз229699 0.0 101620
11:00−21юз229599 0.0 101729
14:00−19юз2293100 0.0 101895
17:00−21юз1192100 0.0 101920
20:00−20с1294100 0.0 102120
23 января, сб
сб2323:00−24ссв349896 0.0 102436
02:00−28ссв479762 0.0 102893
05:00−31с449731 0.0 103262
08:00−33с34960 0.0 103635
11:00−32ссз23960 0.0 103837
14:00−30сз119520 0.0 103936
17:00−31юз229332 0.0 103919
20:00−29ю3492100 0.0 104099
24 января, вс
вс2423:00−26ю4790100 0.0 1039233
02:00−24ю51092100 0.0 1037283
05:00−22ю61197100 0.3 1035344
08:00−19ю51096100 0.6 1034427
11:00−16ю61092100 0.8 1032417
14:00−12ююз5994100 0.1 1030394
17:00−9ююз51094100 0.7 1029404
20:00−5юз61194100 0.6 1028411